User: anonymous
Location: Bismarck
(46.7731°N, 100.8200°W)
Time: 22:11:30
(UTC-05:00)
Language:

Landsat 7 - Orbit

View from above orbital plane
View from above orbital plane
View from above satellite
View from above satellite

Ground track
Ground track

The orbit data is extracted from the following two-line orbital elements,

1 25682U 99020A   14110.06193834  .00000249  00000-0  65261-4 0  1614
2 25682 098.2201 180.4330 0000698 091.7520 268.3759 14.57096008798524
Epoch (UTC): 20 April 2014 01:29:11
Eccentricity: 0.0000698
inclination: 98.2201°
perigee height: 702 km
apogee height: 703 km
right ascension of ascending node: 180.4330°
argument of perigee: 91.7520°
revolutions per day: 14.57096008
mean anomaly at epoch: 268.3759°
orbit number at epoch: 79852

The dashed part of the orbit path shows where the satellite is in the earth's shadow,  

DLR